Location: Sungai Anya
(2.6167°N, 114.0500°E)
Time: 18:31:55
(UTC+00:00)

Spot 2 - Pass Details

Date: 19 October 2021
Orbit: 570 x 773 km, 98.7° (Epoch: 07 December)

Event Time Altitude Azimuth Distance (km) Brightness Sun altitude
Rises 11:28:51 0° 168° (SSE) 2,797 7.4 -20.2°
Reaches altitude 10° 11:31:01 10° 168° (SSE) 1,883 6.5 -20.7°
Maximum altitude 11:35:04 90° 256° (WSW) 573 3.8 -21.7°
Drops below altitude 10° 11:39:04 10° 348° (NNW) 1,865 6.5 -22.7°
Sets 11:41:12 0° 348° (NNW) 2,768 7.4 -23.2°
